Погода в Калиновке

Россия / Республика Дагестан     43°58′01″N   46°34′12″E
темп.,
°C
ветер,
м/с
пор.,
м/с
влажн.,
%
обл.,
%
осадки,
мм/ч
давл.,
гПа
погр.,
м
17 мая, пн
пн1700:00+21вюв1023365 0.0 1005625
03:00+21вюв922385 0.0 1005623
06:00+19вюв717555 0.0 1005471
09:00+26юв1117365 0.0 1005825
12:00+28вюв1316304 0.0 1004943
15:00+27вюв1117340 0.0 1003854
18:00+22в10195141 0.0 1002518
21:00+17в4569100 0.0 100490
18 мая, вт
вт1800:00+16ссв227641 0.0 100314
03:00+19з9157521 0.0 1005608
06:00+19з8137869 0.0 1007833
09:00+20зсз10137071 0.1 1008915
12:00+24зсз8105555 0.1 10101440
15:00+26зсз784666 0.1 10102036
18:00+25зсз464810 0.0 1010291
21:00+19зсз35641 0.0 101170
19 мая, ср
ср1900:00+17ссз34700 0.0 101151
03:00+16ссз22760 0.0 101013
06:00+18сз11701 0.0 100979
09:00+23св224467 0.0 1008842
12:00+28сз43319 0.0 10091638
15:00+29сз65295 0.0 10092540
18:00+21ссз81258100 0.6 1011552
21:00+17зсз487498 4.8 1015226
20 мая, чт
чт2000:00+17зюз587965 0.1 1015308
03:00+16зсз488236 0.1 1016290
06:00+16сз38715 0.0 1018396
09:00+21ссв34440 0.0 10181059
12:00+24всв45345 0.0 10161666
15:00+25в76315 0.0 10161734
18:00+21вюв68435 0.0 1016529
21:00+15вюв411710 0.0 1016221
21 мая, пт
пт2100:00+14в411800 0.0 1015241
03:00+15вюв515740 0.0 1015366
06:00+18вюв717650 0.0 1014597
09:00+24вюв1014460 0.0 1013839
12:00+27вюв1013380 0.0 1012952
15:00+26вюв1215410 0.0 1011814
18:00+23вюв918510 0.0 1012645
21:00+19вюв819610 0.0 1012432